Time,TemperatureF,DewpointF,PressureIn,WindDirection,WindDirectionDegrees,WindSpeedMPH,WindSpeedGustMPH,Humidity,HourlyPrecipIn,Conditions,Clouds,dailyrainin,SoftwareType,DateUTC
2013-02-08 00:02:00,31.0,29.0,30.01,SE,129,5.0,12.0,92,0.00,,,-99.99,,2013-02-08 05:02:00,
2013-02-08 00:12:00,31.0,29.0,30.01,SE,129,5.0,12.0,92,0.00,,,-99.99,,2013-02-08 05:12:00,
2013-02-08 00:22:00,30.0,28.0,30.01,SE,131,6.0,12.0,92,0.00,,,-99.99,,2013-02-08 05:22:00,
2013-02-08 00:32:00,30.0,28.0,30.01,SE,143,5.0,12.0,93,0.00,,,-99.99,,2013-02-08 05:32:00,
2013-02-08 00:42:00,30.0,28.0,30.01,SE,143,5.0,12.0,93,0.00,,,-99.99,,2013-02-08 05:42:00,
2013-02-08 00:52:00,31.0,29.0,29.99,SE,138,6.0,12.0,93,0.00,,,-99.99,,2013-02-08 05:52:00,
2013-02-08 01:01:00,31.0,29.0,29.98,SE,134,6.0,13.0,93,0.00,,,-99.99,,2013-02-08 06:01:00,
2013-02-08 01:11:00,31.0,29.0,29.98,SE,134,6.0,13.0,93,0.00,,,-99.99,,2013-02-08 06:11:00,
2013-02-08 01:21:00,30.0,28.0,29.98,SE,138,6.0,14.0,93,0.00,,,-99.99,,2013-02-08 06:21:00,
2013-02-08 01:32:00,31.0,29.0,29.97,SE,132,6.0,13.0,94,0.00,,,-99.99,,2013-02-08 06:32:00,
2013-02-08 01:42:00,31.0,29.0,29.97,SE,132,6.0,13.0,94,0.00,,,-99.99,,2013-02-08 06:42:00,
2013-02-08 01:52:00,31.0,29.0,29.97,SE,133,6.0,14.0,94,0.00,,,-99.99,,2013-02-08 06:52:00,
2013-02-08 02:01:00,31.0,29.0,29.96,SE,125,2.0,11.0,94,0.00,,,-99.99,,2013-02-08 07:01:00,
2013-02-08 02:11:00,31.0,29.0,29.96,SE,129,4.0,11.0,94,0.00,,,-99.99,,2013-02-08 07:11:00,
2013-02-08 02:21:00,31.0,29.0,29.96,SE,129,4.0,11.0,94,0.00,,,-99.99,,2013-02-08 07:21:00,
2013-02-08 02:32:00,31.0,30.0,29.96,South,176,3.0,10.0,95,0.00,,,-99.99,,2013-02-08 07:32:00,
2013-02-08 02:42:00,31.0,30.0,29.94,SE,130,6.0,19.0,95,0.00,,,-99.99,,2013-02-08 07:42:00,
2013-02-08 02:51:00,31.0,30.0,29.94,SE,130,6.0,19.0,95,0.00,,,-99.99,,2013-02-08 07:51:00,
2013-02-08 03:01:00,31.0,30.0,29.94,SE,135,5.0,12.0,95,0.00,,,-99.99,,2013-02-08 08:01:00,
2013-02-08 03:11:00,31.0,30.0,29.93,ESE,122,5.0,12.0,95,0.00,,,-99.99,,2013-02-08 08:11:00,
2013-02-08 03:21:00,31.0,30.0,29.93,ESE,122,5.0,12.0,95,0.00,,,-99.99,,2013-02-08 08:21:00,
2013-02-08 03:32:00,31.0,30.0,29.92,ESE,123,6.0,14.0,96,0.00,,,-99.99,,2013-02-08 08:32:00,
2013-02-08 03:42:00,31.0,30.0,29.92,ESE,123,6.0,14.0,96,0.00,,,-99.99,,2013-02-08 08:42:00,
2013-02-08 03:52:00,31.0,30.0,29.92,SE,145,5.0,13.0,97,0.00,,,-99.99,,2013-02-08 08:52:00,
2013-02-08 04:03:00,31.0,30.0,29.92,SE,146,6.0,16.0,97,0.00,,,-99.99,,2013-02-08 09:03:00,
2013-02-08 04:11:00,31.0,30.0,29.92,SE,146,6.0,16.0,97,0.00,,,-99.99,,2013-02-08 09:11:00,
2013-02-08 04:21:00,31.0,30.0,29.92,SE,132,3.0,13.0,97,0.00,,,-99.99,,2013-02-08 09:21:00,
2013-02-08 04:32:00,31.0,31.0,29.91,SE,145,3.0,10.0,98,0.00,,,-99.99,,2013-02-08 09:32:00,
2013-02-08 04:42:00,31.0,31.0,29.91,SE,145,3.0,10.0,98,0.00,,,-99.99,,2013-02-08 09:42:00,
2013-02-08 04:52:00,30.0,30.0,29.91,ESE,117,3.0,15.0,99,0.00,,,-99.99,,2013-02-08 09:52:00,
2013-02-08 05:01:00,30.0,30.0,29.91,ESE,112,2.0,13.0,99,0.00,,,-99.99,,2013-02-08 10:01:00,
2013-02-08 05:12:00,30.0,30.0,29.91,ESE,112,2.0,13.0,99,0.00,,,-99.99,,2013-02-08 10:12:00,
2013-02-08 05:22:00,30.0,30.0,29.91,SE,128,0.0,1.0,99,0.00,,,-99.99,,2013-02-08 10:22:00,
2013-02-08 05:32:00,30.0,30.0,29.89,SE,127,4.0,11.0,100,0.00,,,-99.99,,2013-02-08 10:32:00,
2013-02-08 05:42:00,30.0,30.0,29.89,SE,127,4.0,11.0,100,0.00,,,-99.99,,2013-02-08 10:42:00,
2013-02-08 05:52:00,30.0,30.0,29.89,ESE,119,3.0,11.0,100,0.00,,,-99.99,,2013-02-08 10:52:00,
2013-02-08 06:01:00,30.0,30.0,29.88,SSE,147,0.0,9.0,100,0.00,,,-99.99,,2013-02-08 11:01:00,
2013-02-08 06:11:00,30.0,30.0,29.88,SSE,147,0.0,9.0,100,0.00,,,-99.99,,2013-02-08 11:11:00,
2013-02-08 06:21:00,30.0,30.0,29.88,ESE,123,4.0,13.0,100,0.00,,,-99.99,,2013-02-08 11:21:00,
2013-02-08 06:32:00,30.0,30.0,29.87,SE,144,2.0,11.0,100,0.00,,,-99.99,,2013-02-08 11:32:00,
2013-02-08 06:42:00,30.0,30.0,29.87,SE,144,2.0,11.0,100,0.00,,,-99.99,,2013-02-08 11:42:00,
2013-02-08 06:52:00,31.0,31.0,29.87,SE,133,3.0,11.0,100,0.00,,,-99.99,,2013-02-08 11:52:00,
2013-02-08 07:02:00,31.0,31.0,29.86,SE,140,6.0,13.0,100,0.00,,,-99.99,,2013-02-08 12:02:00,
2013-02-08 07:11:00,31.0,31.0,29.86,SE,140,6.0,13.0,100,0.00,,,-99.99,,2013-02-08 12:11:00,
2013-02-08 07:22:00,31.0,31.0,29.86,SSE,154,2.0,11.0,100,0.00,,,-99.99,,2013-02-08 12:22:00,
2013-02-08 07:33:00,31.0,31.0,29.85,SE,130,0.0,7.0,100,0.00,,,-99.99,,2013-02-08 12:33:00,
2013-02-08 07:42:00,31.0,31.0,29.85,SE,130,0.0,7.0,100,0.00,,,-99.99,,2013-02-08 12:42:00,
2013-02-08 07:52:00,31.0,31.0,29.85,SSE,153,0.0,9.0,100,0.00,,,-99.99,,2013-02-08 12:52:00,
2013-02-08 08:02:00,31.0,31.0,29.84,SE,131,1.0,11.0,100,0.00,,,-99.99,,2013-02-08 13:02:00,
2013-02-08 08:12:00,31.0,31.0,29.84,SE,131,1.0,11.0,100,0.00,,,-99.99,,2013-02-08 13:12:00,
2013-02-08 08:22:00,31.0,31.0,29.84,SE,145,3.0,11.0,100,0.00,,,-99.99,,2013-02-08 13:22:00,
2013-02-08 08:32:00,31.0,31.0,29.83,SE,140,4.0,10.0,100,0.00,,,-99.99,,2013-02-08 13:32:00,
2013-02-08 08:42:00,31.0,31.0,29.83,SE,140,4.0,10.0,100,0.00,,,-99.99,,2013-02-08 13:42:00,
2013-02-08 08:52:00,32.0,32.0,29.83,SSE,151,5.0,13.0,100,0.00,,,-99.99,,2013-02-08 13:52:00,
2013-02-08 09:02:00,32.0,32.0,29.83,SSE,152,4.0,14.0,100,0.00,,,-99.99,,2013-02-08 14:02:00,
2013-02-08 09:11:00,32.0,32.0,29.83,SSE,152,4.0,14.0,100,0.00,,,-99.99,,2013-02-08 14:11:00,
2013-02-08 09:22:00,32.0,32.0,29.83,SSE,160,5.0,13.0,100,0.00,,,-99.99,,2013-02-08 14:22:00,
2013-02-08 09:32:00,33.0,33.0,29.83,SE,146,0.0,1.0,99,0.00,,,-99.99,,2013-02-08 14:32:00,
2013-02-08 09:42:00,33.0,33.0,29.83,SE,146,0.0,1.0,99,0.00,,,-99.99,,2013-02-08 14:42:00,
2013-02-08 09:52:00,33.0,33.0,29.81,SSE,164,0.0,0.0,99,0.00,,,-99.99,,2013-02-08 14:52:00,
2013-02-08 10:02:00,33.0,33.0,29.80,SSE,150,0.0,8.0,99,0.00,,,-99.99,,2013-02-08 15:02:00,
2013-02-08 10:12:00,33.0,33.0,29.80,SSE,150,0.0,8.0,99,0.00,,,-99.99,,2013-02-08 15:12:00,
2013-02-08 10:22:00,34.0,34.0,29.79,SE,137,2.0,8.0,99,0.00,,,-99.99,,2013-02-08 15:22:00,
2013-02-08 10:32:00,34.0,34.0,29.78,SSE,147,6.0,13.0,98,0.00,,,-99.99,,2013-02-08 15:32:00,
2013-02-08 10:42:00,34.0,34.0,29.78,SSE,147,6.0,13.0,98,0.00,,,-99.99,,2013-02-08 15:42:00,
2013-02-08 10:52:00,35.0,34.0,29.76,SE,141,8.0,18.0,98,0.00,,,-99.99,,2013-02-08 15:52:00,
2013-02-08 11:01:00,35.0,34.0,29.75,SSE,150,5.0,10.0,97,0.00,,,-99.99,,2013-02-08 16:01:00,
2013-02-08 11:11:00,35.0,34.0,29.75,SSE,150,5.0,10.0,97,0.00,,,-99.99,,2013-02-08 16:11:00,
2013-02-08 11:22:00,35.0,34.0,29.78,SSE,155,3.0,8.0,97,0.00,,,-99.99,,2013-02-08 16:22:00,
2013-02-08 11:32:00,35.0,34.0,29.78,SSE,157,0.0,8.0,98,0.00,,,-99.99,,2013-02-08 16:32:00,
2013-02-08 11:42:00,35.0,34.0,29.78,SSE,157,0.0,8.0,98,0.00,,,-99.99,,2013-02-08 16:42:00,
2013-02-08 11:52:00,35.0,34.0,29.78,ESE,112,0.0,6.0,98,0.00,,,-99.99,,2013-02-08 16:52:00,
2013-02-08 12:03:00,35.0,35.0,29.76,SSE,147,0.0,0.0,99,0.00,,,-99.99,,2013-02-08 17:03:00,
2013-02-08 12:12:00,35.0,35.0,29.76,SSE,147,0.0,0.0,99,0.00,,,-99.99,,2013-02-08 17:12:00,
2013-02-08 12:23:00,35.0,35.0,29.76,SSE,147,0.0,0.0,99,0.00,,,-99.99,,2013-02-08 17:23:00,
2013-02-08 12:32:00,35.0,35.0,29.75,SSE,147,0.0,0.0,100,0.01,,,-99.99,,2013-02-08 17:32:00,
2013-02-08 12:42:00,35.0,35.0,29.75,SSE,147,0.0,0.0,100,0.01,,,-99.99,,2013-02-08 17:42:00,
2013-02-08 12:53:00,35.0,35.0,29.74,SSE,147,0.0,0.0,100,0.01,,,-99.99,,2013-02-08 17:53:00,
2013-02-08 13:02:00,35.0,35.0,29.74,SSE,147,0.0,0.0,100,0.01,,,-99.99,,2013-02-08 18:02:00,
2013-02-08 13:12:00,35.0,35.0,29.74,SSE,147,0.0,0.0,100,0.01,,,-99.99,,2013-02-08 18:12:00,
2013-02-08 13:24:00,36.0,36.0,29.73,SSE,149,0.0,6.0,100,0.01,,,-99.99,,2013-02-08 18:24:00,
2013-02-08 13:35:00,35.0,35.0,29.73,SSE,153,0.0,6.0,100,0.00,,,-99.99,,2013-02-08 18:35:00,
2013-02-08 13:43:00,35.0,35.0,29.73,SSE,153,0.0,6.0,100,0.00,,,-99.99,,2013-02-08 18:43:00,
2013-02-08 13:53:00,36.0,36.0,29.73,SSE,163,0.0,5.0,100,0.00,,,-99.99,,2013-02-08 18:53:00,
2013-02-08 14:02:00,36.0,36.0,29.73,South,181,0.0,6.0,100,0.00,,,-99.99,,2013-02-08 19:02:00,
2013-02-08 14:11:00,36.0,36.0,29.73,South,181,0.0,6.0,100,0.00,,,-99.99,,2013-02-08 19:11:00,
2013-02-08 14:22:00,36.0,36.0,29.74,SSW,197,4.0,10.0,100,0.00,,,-99.99,,2013-02-08 19:22:00,
2013-02-08 14:32:00,36.0,36.0,29.74,SW,215,0.0,10.0,100,0.00,,,-99.99,,2013-02-08 19:32:00,
2013-02-08 14:42:00,36.0,36.0,29.74,SW,215,0.0,10.0,100,0.00,,,-99.99,,2013-02-08 19:42:00,
2013-02-08 14:52:00,35.0,35.0,29.75,SW,217,7.0,22.0,100,0.00,,,-99.99,,2013-02-08 19:52:00,
2013-02-08 15:02:00,35.0,35.0,29.75,South,186,6.0,16.0,100,0.00,,,-99.99,,2013-02-08 20:02:00,
2013-02-08 15:12:00,35.0,35.0,29.75,South,186,6.0,16.0,100,0.00,,,-99.99,,2013-02-08 20:12:00,
2013-02-08 15:22:00,35.0,35.0,29.75,SSW,212,6.0,16.0,100,0.00,,,-99.99,,2013-02-08 20:22:00,
2013-02-08 15:32:00,34.0,34.0,29.75,SW,229,2.0,13.0,100,0.02,,,-99.99,,2013-02-08 20:32:00,
2013-02-08 15:42:00,34.0,34.0,29.75,SW,229,2.0,13.0,100,0.02,,,-99.99,,2013-02-08 20:42:00,
2013-02-08 15:52:00,34.0,34.0,29.76,SSW,208,0.0,26.0,100,0.02,,,-99.99,,2013-02-08 20:52:00,
2013-02-08 16:02:00,33.0,33.0,29.78,SSW,207,8.0,19.0,100,0.02,,,-99.99,,2013-02-08 21:02:00,
2013-02-08 16:11:00,33.0,33.0,29.78,SSW,207,8.0,19.0,100,0.02,,,-99.99,,2013-02-08 21:11:00,
2013-02-08 16:22:00,33.0,33.0,29.78,SSW,200,8.0,21.0,100,0.02,,,-99.99,,2013-02-08 21:22:00,
2013-02-08 16:32:00,32.0,32.0,29.78,SSW,200,0.0,23.0,100,0.00,,,-99.99,,2013-02-08 21:32:00,
2013-02-08 16:42:00,32.0,32.0,29.78,SSW,200,0.0,23.0,100,0.00,,,-99.99,,2013-02-08 21:42:00,
2013-02-08 16:52:00,32.0,32.0,29.79,SSW,209,0.0,27.0,100,0.00,,,-99.99,,2013-02-08 21:52:00,
2013-02-08 17:02:00,32.0,32.0,29.80,SSW,207,6.0,16.0,100,0.00,,,-99.99,,2013-02-08 22:02:00,
2013-02-08 17:11:00,32.0,32.0,29.80,SSW,207,6.0,16.0,100,0.00,,,-99.99,,2013-02-08 22:11:00,
2013-02-08 17:22:00,32.0,32.0,29.80,SSW,205,8.0,19.0,99,0.00,,,-99.99,,2013-02-08 22:22:00,
2013-02-08 17:32:00,31.0,31.0,29.81,SSW,199,9.0,18.0,99,0.00,,,-99.99,,2013-02-08 22:32:00,
2013-02-08 17:42:00,31.0,31.0,29.81,SSW,199,9.0,18.0,99,0.00,,,-99.99,,2013-02-08 22:42:00,
2013-02-08 17:52:00,31.0,31.0,29.83,SSW,199,1.0,22.0,98,0.00,,,-99.99,,2013-02-08 22:52:00,
2013-02-08 18:02:00,30.0,29.0,29.83,SW,218,6.0,18.0,98,0.00,,,-99.99,,2013-02-08 23:02:00,
2013-02-08 18:11:00,30.0,29.0,29.83,SW,218,6.0,18.0,98,0.00,,,-99.99,,2013-02-08 23:11:00,
2013-02-08 18:21:00,30.0,29.0,29.85,SSW,204,4.0,12.0,98,0.00,,,-99.99,,2013-02-08 23:21:00,
2013-02-08 18:32:00,29.0,28.0,29.87,SW,222,9.0,22.0,97,0.00,,,-99.99,,2013-02-08 23:32:00,
2013-02-08 18:42:00,29.0,28.0,29.87,SW,222,9.0,22.0,97,0.00,,,-99.99,,2013-02-08 23:42:00,
2013-02-08 18:52:00,29.0,28.0,29.88,SSW,212,0.0,23.0,97,0.00,,,-99.99,,2013-02-08 23:52:00,
2013-02-08 19:02:00,29.0,28.0,29.88,SSW,206,7.0,20.0,96,0.00,,,-99.99,,2013-02-09 00:02:00,
2013-02-08 19:11:00,29.0,28.0,29.88,SSW,206,7.0,20.0,96,0.00,,,-99.99,,2013-02-09 00:11:00,
2013-02-08 19:22:00,29.0,28.0,29.89,SW,220,7.0,19.0,96,0.00,,,-99.99,,2013-02-09 00:22:00,
2013-02-08 19:32:00,28.0,27.0,29.89,SW,224,6.0,17.0,95,0.02,,,-99.99,,2013-02-09 00:32:00,
2013-02-08 19:42:00,28.0,27.0,29.89,SW,224,6.0,17.0,95,0.02,,,-99.99,,2013-02-09 00:42:00,
2013-02-08 19:52:00,28.0,27.0,29.91,SW,217,8.0,19.0,95,0.02,,,-99.99,,2013-02-09 00:52:00,
2013-02-08 20:01:00,28.0,27.0,29.91,South,188,7.0,22.0,95,0.02,,,-99.99,,2013-02-09 01:01:00,
2013-02-08 20:11:00,28.0,27.0,29.91,South,188,7.0,22.0,95,0.02,,,-99.99,,2013-02-09 01:11:00,
2013-02-08 20:22:00,27.0,26.0,29.92,South,191,5.0,16.0,95,0.02,,,-99.99,,2013-02-09 01:22:00,
2013-02-08 20:32:00,27.0,26.0,29.92,SW,225,6.0,13.0,95,0.00,,,-99.99,,2013-02-09 01:32:00,
2013-02-08 20:42:00,27.0,26.0,29.92,SW,225,6.0,13.0,95,0.00,,,-99.99,,2013-02-09 01:42:00,
2013-02-08 20:52:00,27.0,26.0,29.92,South,186,7.0,24.0,95,0.00,,,-99.99,,2013-02-09 01:52:00,
2013-02-08 21:01:00,27.0,26.0,29.93,SSE,156,6.0,16.0,95,0.00,,,-99.99,,2013-02-09 02:01:00,
2013-02-08 21:11:00,27.0,26.0,29.93,South,190,7.0,16.0,95,0.00,,,-99.99,,2013-02-09 02:11:00,
2013-02-08 21:21:00,27.0,26.0,29.93,South,190,7.0,16.0,95,0.00,,,-99.99,,2013-02-09 02:21:00,
2013-02-08 21:32:00,27.0,26.0,29.93,SW,217,0.0,27.0,96,0.00,,,-99.99,,2013-02-09 02:32:00,
2013-02-08 21:42:00,27.0,26.0,29.93,SW,217,0.0,27.0,96,0.00,,,-99.99,,2013-02-09 02:42:00,
2013-02-08 21:53:00,26.0,25.0,29.93,South,191,7.0,18.0,95,0.00,,,-99.99,,2013-02-09 02:53:00,
2013-02-08 22:02:00,26.0,25.0,29.96,South,187,6.0,18.0,96,0.00,,,-99.99,,2013-02-09 03:02:00,
2013-02-08 22:11:00,26.0,25.0,29.96,South,187,6.0,18.0,96,0.00,,,-99.99,,2013-02-09 03:11:00,
2013-02-08 22:22:00,26.0,25.0,29.96,SSW,195,4.0,13.0,96,0.00,,,-99.99,,2013-02-09 03:22:00,
2013-02-08 22:32:00,26.0,25.0,29.97,SW,228,6.0,15.0,96,0.03,,,-99.99,,2013-02-09 03:32:00,
2013-02-08 22:42:00,26.0,25.0,29.97,SW,228,6.0,15.0,96,0.03,,,-99.99,,2013-02-09 03:42:00,
2013-02-08 22:53:00,26.0,25.0,29.97,SSW,212,6.0,20.0,96,0.03,,,-99.99,,2013-02-09 03:53:00,
2013-02-08 23:03:00,26.0,25.0,29.97,SSW,209,4.0,16.0,96,0.03,,,-99.99,,2013-02-09 04:03:00,
2013-02-08 23:12:00,26.0,25.0,29.97,SSW,201,6.0,19.0,96,0.03,,,-99.99,,2013-02-09 04:12:00,
2013-02-08 23:23:00,26.0,25.0,29.97,SSW,201,6.0,19.0,96,0.03,,,-99.99,,2013-02-09 04:23:00,
2013-02-08 23:32:00,25.0,24.0,29.98,SSW,206,5.0,15.0,96,0.00,,,-99.99,,2013-02-09 04:32:00,
2013-02-08 23:42:00,25.0,24.0,29.98,SSW,206,5.0,15.0,96,0.00,,,-99.99,,2013-02-09 04:42:00,
2013-02-08 23:52:00,25.0,24.0,29.98,SW,216,3.0,12.0,96,0.00,,,-99.99,,2013-02-09 04:52:00,